EW3148 Weather Reports


Display with metric or nautical units.
time (UTC)temp
F
wind
direction
speed
MPH
gust
MPH
rain 1hr
in
rain 24hr
in
rain mn
in
humidity
%
barometer
mb
20220812024322 80 171 4.0 9.0 0.00 0.04 0.04 73 1012.1
20220812023338 81 146 4.0 9.0 0.00 0.04 0.04 71 1012.2
20220812022332 82 177 4.0 9.0 0.00 0.04 0.04 68 1012.0
20220812021337 83 183 2.0 8.0 0.00 0.04 0.04 66 1011.6
20220812020356 83 158 3.0 8.0 0.00 0.04 0.04 64 1011.2
20220812015353 84 126 1.0 6.0 0.00 0.04 0.04 61 1011.1
20220811225248 99 329 2.0 8.0 0.00 0.04 0.04 37 1010.1
20220811224250 97 30 2.0 8.0 0.00 0.04 0.04 39 1010.0
20220811223229 95 26 2.0 8.0 0.00 0.04 0.04 41 1009.9
20220811222228 95 81 2.0 8.0 0.00 0.04 0.04 41 1010.0
20220811221235 95 55 0.0 3.0 0.00 0.04 0.04 42 1010.1
20220811191204 100 126 2.0 8.0 0.00 0.00 0.00 35 1012.5
20220811190202 100 336 1.0 8.0 0.00 0.00 0.00 36 1012.6
20220811185149 99 19 2.0 8.0 0.00 0.00 0.00 38 1012.8
20220811184200 97 71 1.0 7.0 0.00 0.00 0.00 39 1013.0
20220811183156 98 232 1.0 8.0 0.00 0.00 0.00 41 1013.2
20220811172536 97 355 2.0 8.0 0.00 0.00 0.00 42 1014.5
20220811171504 96 299 1.0 6.0 0.00 0.00 0.00 43 1014.6
20220811170515 95 284 1.0 8.0 0.00 0.00 0.00 42 1014.8
20220811165540 95 229 2.0 8.0 0.00 0.00 0.00 42 1014.8
20220811164534 95 256 1.0 7.0 0.00 0.00 0.00 43 1014.8
20220811153736 91 304 2.0 10.0 0.00 0.00 0.00 51 1015.0
20220811152756 90 296 2.0 9.0 0.00 0.00 0.00 53 1014.8
20220811151737 89 278 2.0 8.0 0.00 0.00 0.00 56 1014.8
20220811150723 88 310 2.0 7.0 0.00 0.00 0.00 59 1014.9
20220811145738 87 290 1.0 7.0 0.00 0.00 0.00 60 1014.9
20220811100258 73 27 0.0 0.0 0.00 0.00 0.00 83 1014.2
20220811095243 73 27 0.0 0.0 0.00 0.00 0.00 83 1014.2
20220811094301 73 27 0.0 0.0 0.00 0.00 0.00 83 1014.3
20220811093229 73 43 0.0 0.0 0.00 0.00 0.00 83 1014.3
20220811092226 74 43 0.0 1.0 0.00 0.00 0.00 83 1014.3
20220811052621 77 192 3.0 8.0 0.00 0.00 0.00 79 1015.3
20220811051613 77 172 3.0 9.0 0.00 0.00 0.00 78 1015.2
20220811050627 77 184 4.0 12.0 0.00 0.00 0.00 78 1015.3
20220811045605 77 138 5.0 12.0 0.00 0.00 0.00 77 1015.4
20220811044607 78 140 4.0 11.0 0.00 0.00 0.00 75 1015.5